Theta_e
340 344 346 347 347 347 347 346 345 344 344 340 341 340 338 336 334 331 328 323 319 319 317 316 317 320 321
347 335 336 339 343 344 343 342 340 340 340 337 335 339 337 335 333 330 327 323 317 314 313 311 314 317 314
340 339 333 331 335 337 338 335 334 343 343 336 332 336 338 335 332 330 327 321 312 309 309 310 313 309 310
334 340 343 343 345 345 344 344 343 343 341 339 331 330 332 332 333 330 324 319 318 315 310 312 308 309 309
327 337 341 344 344 343 344 343 342 342 340 338 333 332 333 327 332 328 324 326 324 319 313 310 309 310 309
319 335 339 340 342 342 341 341 341 341 340 336 333 334 336 332 330 326 324 321 321 318 314 312 309 309 308
320 332 338 337 337 336 335 334 337 337 337 337 335 335 331 331 330 328 324 320 317 316 315 313 310 309 308
323 326 325 325 323 321 321 325 329 330 328 328 327 326 325 326 324 320 318 317 314 312 314 313 312 312 311
316 313 313 313 313 313 314 317 320 323 325 321 319 317 317 318 317 316 314 314 315 314 314 313 313 314 312
307 306 307 308 309 309 311 313 314 317 317 318 316 313 314 313 312 310 310 309 309 308 309 310 308 308 312
303 303 303 304 305 307 307 309 310 310 309 310 310 310 310 309 310 312 311 311 310 309 308 309 309 307 311
302 302 302 302 302 305 305 306 307 308 310 311 311 310 311 310 309 312 311 310 307 306 306 309 313 312 311
303 303 302 301 301 299 300 301 301 303 304 305 305 305 306 304 304 305 308 306 304 304 306 306 310 306 306
306 304 302 299 298 297 296 296 296 297 297 298 298 299 299 298 298 299 301 303 302 302 299 303 302 303 304
302 300 298 297 297 294 293 292 292 293 293 295 294 294 294 294 292 293 294 295 294 298 297 297 295 294 295
301 300 299 297 292 292 291 291 291 291 291 292 292 292 292 292 291 291 291 292 292 289 293 292 293 294 289
Wind_Speed
5 6 6 7 9 8 6 5 5 5 6 7 7 9 10 11 12 12 12 11 12 12 12 11 11 11 7
7 7 3 5 3 6 5 5 6 6 8 8 9 9 10 10 11 11 10 9 9 10 10 9 8 9 7
4 0 3 4 3 2 4 6 5 7 8 8 8 9 11 10 8 7 9 7 6 6 6 5 8 5 6
3 4 4 5 6 7 8 9 8 5 3 5 7 7 9 8 8 8 7 4 3 4 3 1 4 5 4
4 4 3 2 2 3 6 4 4 2 4 4 4 2 4 5 4 4 2 4 6 5 4 4 4 4 3
4 3 1 0 1 2 3 5 2 2 3 3 2 2 2 2 3 2 2 4 3 4 4 4 4 3 3
0 2 3 6 6 8 8 9 7 5 3 3 3 2 2 1 1 2 3 3 4 4 3 3 2 2 2
6 11 7 7 8 8 8 9 10 7 6 6 5 5 5 4 4 5 3 2 3 3 3 2 2 2 2
11 10 8 7 7 7 7 9 10 8 7 7 5 5 5 4 5 4 3 2 2 2 3 3 4 4 4
11 9 9 9 9 8 7 9 12 11 11 9 7 7 6 5 5 5 4 3 3 3 4 4 3 4 5
10 9 9 10 8 8 8 8 12 11 10 8 6 5 4 4 4 3 5 3 3 4 4 4 3 2 3
8 8 8 9 8 8 9 8 10 8 10 7 7 8 7 7 7 5 6 4 6 6 6 4 2 3 3
7 7 6 8 9 9 9 11 11 10 11 10 8 8 8 8 9 10 6 7 7 9 5 5 2 4 5
6 8 6 8 9 9 8 11 12 12 12 11 10 8 9 8 10 10 9 6 6 9 5 4 2 3 6
9 9 9 9 8 8 8 9 10 13 12 10 11 9 9 8 7 9 9 11 6 6 11 6 4 4 7
9 9 10 8 9 8 9 9 8 11 12 11 11 10 9 7 8 7 8 7 7 7 4 7 6 3 4
Wind_Direction
281 236 236 201 182 200 186 158 155 147 123 94 89 91 90 87 84 72 61 50 46 44 38 27 10 347 22
230 218 253 307 245 189 166 154 157 156 142 136 127 98 97 96 104 93 77 64 56 47 43 25 346 303 30
261 177 248 243 348 266 207 196 183 210 177 162 94 116 117 115 115 112 109 96 102 91 61 12 320 25 12
225 237 241 239 230 218 223 207 212 224 172 142 124 134 124 131 132 124 114 142 186 37 49 302 33 15 31
248 221 196 221 234 251 247 242 205 125 125 122 127 152 135 164 140 121 68 350 45 37 43 31 12 359 8
306 221 240 68 271 261 49 28 28 142 146 125 106 152 145 126 110 101 71 47 27 62 51 43 39 17 18
316 115 92 50 46 44 46 43 25 25 38 73 45 50 46 30 1 143 103 67 18 7 59 52 43 37 1
105 71 68 70 68 57 45 34 40 43 40 41 49 46 47 36 45 47 39 57 65 355 336 6 335 315 317
59 59 55 69 77 74 71 50 48 38 68 70 56 48 35 24 50 59 55 36 15 19 300 330 322 322 328
66 57 60 57 61 56 53 49 47 48 60 58 61 51 37 44 41 43 18 50 21 3 350 349 329 318 333
83 82 74 68 65 62 53 44 50 58 57 62 59 60 72 66 56 42 51 41 17 357 329 308 291 277 332
108 107 106 99 85 78 77 69 60 52 57 68 66 55 45 45 38 28 37 47 20 353 317 290 292 45 34
102 92 83 92 86 81 73 62 66 68 64 58 53 50 54 49 38 27 28 26 25 357 350 1 73 79 71
129 118 108 102 93 94 83 76 71 63 58 69 68 57 50 56 46 34 27 36 42 26 356 287 15 156 33
111 112 110 111 107 98 83 74 66 71 69 66 67 65 60 58 56 40 32 30 33 35 29 19 354 3 336
140 142 133 118 113 102 97 89 76 68 70 69 69 66 62 54 54 47 41 43 31 31 32 24 23 5 351